太空蜂星座NZ-21星 (SPACEBEENZ-21)

导读

SPACEBEENZ-21是一颗由新西兰(NZ)于2022年5月2日北京时间8时发射的人造卫星,依托新西兰成熟的商业航天发射体系完成入轨。新西兰近年积极推进航天产业发展,允许国际商业航天机构在本土开展发射活动,该卫星是新西兰商业航天发射活动的组成部分,服务于相关空间技术验证或小型太空任务,助力新西兰航天产业持续发展。

基本信息
目录编号:
52405
目录名称:
SPACEBEENZ-21
国际标识:
2022-047M
轨道中心:
EARTH
卫星名称:
太空蜂星座NZ-21星
卫星全名:
太空蜂星座NZ-21星 (SPACEBEENZ-21)
卫星状态:
已陨落 最后检测时间 2024-01-12
发射日期:
2022-05-02 UTC
国别 :
(NZ)
星等 :
--
轨道信息
数据来源 国际轨道数据
星历时间: 2024-01-10T20:33:41+0800
轨道信息已过期915天
半长轴: 6567.333km
偏心率: 0.0010344
轨道倾角: 97.364°
近地点辐角 303.035°
升交点赤经 106.024°
平近点角 56.995°
近地点: 182.404km
远地点: 195.992km
周期: 88.276分钟
每日圈数: 16.312451
详细信息
平衡模式:
三轴稳定
覆盖范围:
全球
运营商:
蜂群科技公司
运营商所在国:
美国
制造商(研发单位):
蜂群科技公司
制造商所在国:
美国
使用方式:
暂无
卫星简介
太空蜜蜂(SpaceBEE)皮卫星建立在0.25U立方体卫星平台上,是私营公司蜂群科技公司(Swarm Technologies)开发的卫星星座的一部分。该星座计划由大约150颗皮卫星组成,提供双向卫星通信和数据中继。该卫星已陨落。